Weather Roundup
Issued by NWS

Home | Current Version | Previous Version | Text Only | Print | Product List | Glossary On
Versions: 1 2 3 4 5 6 7 8 9 10 11 12 13 14 15 16 17 18 19 20 21 22 23 24 25 26 27 28 29 30 31 32 33 34 35 36 37 38 39 40 41 42 43 44 45 46 47 48 49 50
000
NZUS93 KARX 021559
HRRWXR

CURRENT HOURLY OBSERVATIONS ACROSS
MUCH OF THE UPPER MISSISSIPPI VALLEY
NATIONAL WEATHER SERVICE LA CROSSE WI
1100 AM CDT THU JUL 02 2015


...SOUTHEAST MINNESOTA...


CITY           SKY/WX    TMP DP  RH WIND       PRES   REMARKS
ROCHESTER      MOSUNNY   68  54  60 SE6       30.07R
ROCHESTER/MAYO FAIR      68  50  51 CALM      30.06S
WINONA         SUNNY     70  59  68 CALM      30.06R
AUSTIN         PTSUNNY   66  54  63 SE5       30.05F
ALBERT LEA     PTSUNNY   68  52  56 SE3       30.04F
DODGE CENTER   MOSUNNY   68  54  60 E3        30.06S
PRESTON        MOSUNNY   65  52  63 CALM      30.07S
OWATONNA       MOSUNNY   70  52  52 SE6       30.05S
FARIBAULT      SUNNY     70  54  56 CALM      30.05S
$$

...ELSEWHERE IN MINNESOTA...


CITY           SKY/WX    TMP DP  RH WIND       PRES   REMARKS
MINNEAPOLIS    MOSUNNY   71  54  54 S3        30.04S
INTNL FALLS    SUNNY     72  60  66 W7        29.98S
DULUTH         MOSUNNY   73  57  57 W7        30.03S
RED WING       SUNNY     70  59  68 CALM      30.03F
REDWOOD FALLS  SUNNY     69  48  47 SE10      30.03R
MANKATO        SUNNY     68  54  60 SE7       30.04F
WORTHINGTON    CLOUDY    63  52  67 SE8       30.02S
FAIRMONT       PTSUNNY   66  48  52 SE9       30.02S
$$

...SOUTHWEST WISCONSIN...


CITY           SKY/WX    TMP DP  RH WIND       PRES   REMARKS
LA CROSSE      NOT AVBL
PRAIRIE DU CHI NOT AVBL
BOSCOBEL       SUNNY     68  52  56 VRB7      30.06F
LONE ROCK      NOT AVBL
PLATTEVILLE    SUNNY     66  48  52 E8        30.06
FORT MC COY    NOT AVBL
VIROQUA        NOT AVBL
WIS DELLS      NOT AVBL
$$

...ELSEWHERE IN WISCONSIN...


CITY           SKY/WX    TMP DP  RH WIND       PRES   REMARKS
MILWAUKEE      MOSUNNY   61  51  70 NE9       30.05F
MADISON        SUNNY     64  45  49 E9        30.06R
GREEN BAY      SUNNY     67  49  52 NE8       30.07S
EAU CLAIRE     NOT AVBL
BLACK RVR FLS  FAIR      67  53  60 CALM      30.06
MEDFORD        NOT AVBL
WAUSAU         SUNNY     68  46  45 CALM      30.07R
WIS RAPIDS     SUNNY     67  46  47 NE8       30.08S
MARSHFIELD     SUNNY     67  51  56 SE5       30.07S
RICE LAKE      SUNNY     67  53  59 CALM      30.07S
$$

...NORTHEAST IOWA...


CITY           SKY/WX    TMP DP  RH WIND       PRES   REMARKS
DECORAH        NOT AVBL
MASON CITY     PTSUNNY   67  54  63 E12       30.05F
CHARLES CITY   NOT AVBL
OELWEIN        NOT AVBL
$$

...ELSEWHERE IN IOWA...


CITY           SKY/WX    TMP DP  RH WIND       PRES   REMARKS
DES MOINES     CLOUDY    66  56  70 E9        30.00S
IOWA CITY      PTSUNNY   67  49  52 E12       30.02S
FORT DODGE     CLOUDY    66  57  72 E12       30.02S
$$

...NORTHERN ILLINOIS...


CITY           SKY/WX    TMP DP  RH WIND       PRES   REMARKS
CHICAGO-OHARE  PTSUNNY   63  54  72 NE9       30.01S
CHICAGO-MIDWAY MOSUNNY   68  57  68 N13       30.00S
MOLINE         MOSUNNY   67  53  61 E13       29.99F
ROCKFORD       MOSUNNY   66  52  60 E9        30.04S
PEORIA         PTSUNNY   66  55  67 NE9       29.99R
$$

NOTE: "FAIR" INDICATES FEW OR NO CLOUDS BELOW 12,000 FEET WITH NO
SIGNIFICANT WEATHER AND/OR OBSTRUCTIONS TO VISIBILITY. WIND
SPEEDS ARE IN MILES-PER-HOUR.



USA.gov is the U.S. government's official web portal to all federal, state and local government web resources and services.